User: anonymous   Login
Location: Caltech
(34.1382°N, 118.1253°W)
Time: 07:21:27
(UTC-07:00)
Language:

Cosmos 2219 Rocket - Orbit

View from above orbital plane
View from above orbital plane
View from above satellite
View from above satellite

Ground track
Ground track

The orbit data is extracted from the following two-line orbital elements,

1 22220U 92076B   15087.02719723  .00000019  00000-0  33730-4 0  9994
2 22220 071.0014 328.7245 0010770 066.9813 030.6449 14.16356531155778
Epoch (UTC): 28 March 2015 00:39:09
Eccentricity: 0.0010770
inclination: 71.0014°
perigee height: 830 km
apogee height: 845 km
right ascension of ascending node: 328.7245°
argument of perigee: 66.9813°
revolutions per day: 14.16356531
mean anomaly at epoch: 30.6449°
orbit number at epoch: 15577

The dashed part of the orbit path shows where the satellite is in the earth's shadow,  

DLR